Stowe, USA 16 day weather forecast

Slopes altitude range 390 m - 1135m

Number of lifts: 12 Pistes: 68km

In some cases the lift and piste totals shown are for the ski domain (e.g. Three Valleys) rather than individual resort (e.g. Courchevel)

Overview

The 16 day weather forecast is fully updated 4 times every day.

    • Thu 21 FEB 2019
    • Thu 21
    • -2C 2C
    • Fri 22 FEB 2019
    • Fri 22
    • -11C -4C
    • Sat 23 FEB 2019
    • Sat 23
    • -9C -8C
    • Sun 24 FEB 2019
    • Sun 24
    • -2C 1C
    • Mon 25 FEB 2019
    • Mon 25
    • -4C 1C
    • Tue 26 FEB 2019
    • Tue 26
    • -20C -18C
    • Wed 27 FEB 2019
    • Wed 27
    • -16C -16C
    • Thu 28 FEB 2019
    • Thu 28
    • -18C -16C
    • Fri 01 MAR 2019
    • Fri 01
    • -14C -14C
    • Sat 02 MAR 2019
    • Sat 02
    • -4C 1C
    • Sun 03 MAR 2019
    • Sun 03
    • -15C -8C
    • Mon 04 MAR 2019
    • Mon 04
    • -23C -15C
    • Tue 05 MAR 2019
    • Tue 05
    • -22C -18C
    • Wed 06 MAR 2019
    • Wed 06
    • -18C -15C
    • Thu 07 MAR 2019
    • Thu 07
    • -15C -12C
    • Fri 08 MAR 2019
    • Fri 08
    • -11C -10C

Date:

Time Type 0°C level Temp Chill Snow Cloud Speed Gust Dir Press
18:00 519m 2°C 2_11 1cm 97% 11mph 31mph 1008mB
21:00 464m 2°C 2_13 0cm 18% 13mph 32mph 1010mB
0:00 57m 0°C 0_12 0cm 14% 12mph 35mph 1012mB
3:00 0m -2°C -2_12 0cm 1% 12mph 35mph 1015mB
6:00 0m -4°C -4_9 0cm 37% 9mph 25mph 1019mB
9:00 0m -8°C -8_5 0cm 4% 5mph 6mph 1022mB
12:00 0m -4°C -4_2 0cm 3% 2mph 3mph 1026mB
15:00 0m -6°C -6_5 0cm 14% 5mph 9mph 1029mB
18:00 0m -3°C -3_8 0cm 24% 8mph 13mph 1029mB
21:00 0m -3°C -3_8 0cm 50% 8mph 16mph 1030mB
0:00 0m -7°C -7_5 0cm 52% 5mph 7mph 1032mB
3:00 0m -8°C -8_3 0cm 28% 3mph 4mph 1033mB
6:00 0m -9°C -9_2 0cm 37% 2mph 2mph 1034mB
9:00 0m -9°C -9_4 0cm 15% 4mph 4mph 1034mB
12:00 0m -8°C -8_4 0cm 25% 4mph 5mph 1034mB
15:00 0m -3°C -3_5 0cm 0% 5mph 8mph 1032mB
18:00 7m -1°C -1_6 0cm 16% 6mph 9mph 1031mB
21:00 126m -1°C -1_5 0cm 76% 5mph 10mph 1028mB
0:00 0m -3°C -3_6 0cm 68% 6mph 7mph 1027mB
3:00 0m -4°C -4_7 0cm 91% 7mph 9mph 1024mB
6:00 0m -4°C -4_7 0cm 96% 7mph 12mph 1020mB
9:00 173m -2°C -2_11 1cm 100% 11mph 26mph 1015mB
12:00 340m 1°C 1_15 0cm 100% 15mph 36mph 1008mB
15:00 2893m 4°C 4_26 0cm 100% 26mph 56mph 999mB
18:00 2134m 4°C 4_20 0cm 89% 20mph 50mph 992mB
21:00 1510m 4°C 4_11 0cm 100% 11mph 29mph 988mB
0:00 949m 3°C 3_11 0cm 100% 11mph 34mph 986mB
3:00 582m 2°C 2_14 1cm 100% 14mph 37mph 986mB
6:00 436m 1°C 1_15 2cm 100% 15mph 40mph 984mB
9:00 228m 0°C 0_16 1cm 100% 16mph 40mph 984mB
12:00 0m 1°C 1_27 2cm 100% 27mph 45mph 990mB
15:00 0m -5°C -5_26 1cm 100% 26mph 39mph 999mB
18:00 0m -5°C -5_26 1cm 100% 26mph 41mph 1005mB
21:00 0m -12°C -12_25 1cm 100% 25mph 41mph 1011mB
0:00 0m -14°C -14_22 1cm 100% 22mph 36mph 1018mB
3:00 0m -16°C -16_19 0cm 92% 19mph 31mph 1023mB
6:00 0m -18°C -18_15 0cm 66% 15mph 27mph 1026mB
9:00 0m -19°C -19_12 0cm 4% 12mph 23mph 1029mB
12:00 0m -18°C -18_8 0cm 3% 8mph 18mph 1032mB
15:00 0m -18°C -18_9 0cm 4% 9mph 15mph 1032mB
18:00 0m -15°C -15_11 0cm 3% 11mph 17mph 1031mB
21:00 0m -15°C -15_11 0cm 3% 11mph 18mph 1031mB
0:00 0m -16°C -16_4 0cm 7% 4mph 7mph 1032mB
3:00 0m -17°C -17_1 0cm 25% 1mph 2mph 1033mB
6:00 0m -17°C -17_2 0cm 50% 2mph 3mph 1032mB
9:00 0m -16°C -16_3 0cm 87% 3mph 4mph 1031mB
12:00 0m -16°C -16_4 0cm 85% 4mph 6mph 1030mB
15:00 0m -13°C -13_5 0cm 97% 5mph 6mph 1029mB
18:00 0m -11°C -11_5 0cm 99% 5mph 7mph 1025mB
21:00 0m -11°C -11_7 1cm 100% 7mph 9mph 1023mB
0:00 0m -12°C -12_7 1cm 100% 7mph 12mph 1024mB
3:00 0m -15°C -15_5 0cm 46% 5mph 7mph 1024mB
6:00 0m -16°C -16_5 0cm 23% 5mph 6mph 1024mB
9:00 0m -17°C -17_4 0cm 0% 4mph 5mph 1025mB
12:00 0m -16°C -16_3 0cm 0% 3mph 4mph 1027mB
15:00 0m -12°C -12_4 0cm 0% 4mph 4mph 1026mB
18:00 0m -9°C -9_5 0cm 0% 5mph 5mph 1025mB
21:00 0m -9°C -9_4 0cm 0% 4mph 5mph 1024mB
0:00 0m -13°C -13_2 0cm 0% 2mph 2mph 1026mB
3:00 0m -13°C -13_2 0cm 0% 2mph 2mph 1028mB
6:00 0m -14°C -14_2 0cm 0% 2mph 2mph 1028mB
9:00 0m -14°C -14_2 0cm 0% 2mph 3mph 1029mB
12:00 0m -14°C -14_3 0cm 0% 3mph 3mph 1030mB
15:00 0m -8°C -8_3 0cm 0% 3mph 4mph 1030mB
18:00 0m -5°C -5_2 0cm 6% 2mph 1mph 1028mB
21:00 0m -5°C -5_2 0cm 49% 2mph 4mph 1026mB
0:00 0m -8°C -8_5 0cm 45% 5mph 7mph 1024mB
3:00 0m -7°C -7_7 0cm 99% 7mph 15mph 1021mB
6:00 0m -7°C -7_12 4cm 100% 12mph 26mph 1015mB
9:00 0m -4°C -4_11 6cm 100% 11mph 31mph 1007mB
12:00 312m 1°C 1_16 9cm 100% 16mph 40mph 1002mB
15:00 340m 2°C 2_12 2cm 100% 12mph 26mph 1001mB
18:00 0m 2°C 2_17 3cm 100% 17mph 28mph 1002mB
21:00 0m -3°C -3_16 1cm 100% 16mph 32mph 1004mB
0:00 0m -5°C -5_18 1cm 100% 18mph 34mph 1006mB
3:00 0m -7°C -7_19 1cm 100% 19mph 36mph 1008mB
6:00 0m -8°C -8_18 1cm 98% 18mph 33mph 1010mB
9:00 0m -12°C -12_15 0cm 4% 15mph 33mph 1012mB
12:00 0m -8°C -8_11 0cm 17% 11mph 29mph 1015mB
Morning 0.0260417mm 0.0625 0m -15°C -15_12 0cm 82% 12mph 29mph 1019mB
Afternoon 0mm 0 0m -15°C -15_7 0cm 9% 7mph 23mph 1023mB
Morning 0.0104167mm 0 0m -22°C -22_7 0cm 43% 7mph 15mph 1021mB
Afternoon 0mm 0 0m -18°C -18_8 0cm 5% 8mph 25mph 1021mB
Morning 0.0260417mm 0 0m -22°C -22_11 0cm 83% 11mph 30mph 1019mB
Afternoon 0.0260417mm 0 0m -15°C -15_9 0cm 75% 9mph 24mph 1026mB
Morning 0.0208333mm 0 0m -17°C -17_5 0cm 74% 5mph 7mph 1030mB
Afternoon 0.015625mm 0 0m -12°C -12_2 0cm 67% 2mph 2mph 1033mB
Morning 0.00520833mm 0 0m -14°C -14_2 0cm 39% 2mph 2mph 1030mB
Afternoon 0mm 0 0m -10°C -10_3 0cm 30% 3mph 4mph 1030mB
Morning 0mm 0 0m -10°C -10_2 0cm 17% 2mph 3mph 1029mB
Afternoon 0mm 0 0m -5°C -5_6 0cm 52% 6mph 8mph 1028mB

16 day outlook at a glance

Forecast issued: 21/02/2019 18:00:31

Chat

Your comments and questions. In a resort? Let us know what it's like!


Characters left 250

For terms and conditions see Readers Comments on the Cookie and privacy policy page.